Regional Weather Roundup
Issued by NWS

Home | Current Version | Previous Version | Text Only | Print | Product List | Glossary Off
Versions: 1 2 3 4 5 6 7 8 9 10 11 12 13 14 15 16 17 18 19 20 21 22 23 24 25 26 27 28 29 30 31 32 33 34 35 36 37 38 39 40 41 42 43 44 45 46 47 48 49 50

039
ASUS43 KMPX 292101
RWRMN
WEATHER ROUNDUP FOR MINNESOTA
NATIONAL WEATHER SERVICE TWIN CITIES/CHANHASSEN MN
400 PM CDT MON MAY 29 2017


NOTE: "FAIR" INDICATES FEW OR NO CLOUDS BELOW 12,000 FEET WITH NO
SIGNIFICANT WEATHER AND/OR OBSTRUCTIONS TO VISIBILITY. N/A MEANS
CURRENT SKY AND/OR WEATHER CONDITIONS ARE NOT AVAILABLE.

MNZ060>063-068>070-292200-
   Twin Cities Metro

CITY           SKY/WX    TMP DP  RH WIND       PRES   REMARKS
TWIN CITIES    PTSUNNY   64  47  53 W16G28    29.81F
ST PAUL        MOSUNNY   64  51  62 W14G22    29.81F
CRYSTAL        CLOUDY    62  45  53 W16G28    29.81S
BLAINE         PTSUNNY   63  52  67 W13G23    29.80F
LAKEVILLE      PTSUNNY   64  46  52 W13G23    29.82F
EDEN PRAIRIE   LGT RAIN  64  51  62 NW14G25   29.82S
SOUTH ST PAUL  MOSUNNY   63  50  61 W12       29.81F
LAKE ELMO      PTSUNNY   63  50  63 W14G22    29.82R
$$
MNZ001>005-007-008-013>017-022>024-027-028-292200-
   Northwest Minnesota

CITY           SKY/WX    TMP DP  RH WIND       PRES   REMARKS
BEMIDJI        CLOUDY    56  45  66 W21G28    29.82S
HALLOCK        CLOUDY    52  45  76 NW17G24   29.86S
ROSEAU         CLOUDY    55  43  62 NW18G26   29.81S
WARROAD        CLOUDY    54  43  66 NW10G17   29.80S
CROOKSTON      CLOUDY    55  46  71 N16       29.87R
FOSSTON        CLOUDY    54  46  76 NW14G20   29.85S
DETROIT LAKES  RAIN      50  48  93 NW17G23   29.89R
MOORHEAD       CLOUDY    55  46  71 NW17      29.90S
PARK RAPIDS    CLOUDY    57  43  59 W20       29.83F
MAHNOMEN       CLOUDY    55  49  79 NW18      29.86S
$$
MNZ006-009>011-018-025>026-292200-
   North Central Minnesota

CITY           SKY/WX    TMP DP  RH WIND       PRES   REMARKS
BAUDETTE       CLOUDY    53  41  63 NW17      29.78R
FLAG ISLAND    CLOUDY    50  39  66 N20       29.77S
INTL FALLS     CLOUDY    54  42  64 NW15      29.74R
WASKISH        CLOUDY    55  43  62 NW14G22   29.79S
BIG FORK       CLOUDY    54  45  71 NW9       29.77S
LONGVILLE      CLOUDY    54  45  71 NW9G16    29.82S
GRAND RAPIDS   CLOUDY    53  44  71 NW14G22   29.80S
CRANE LAKE     CLOUDY    52  50  93 W6        29.73R
COOK           LGT RAIN  54  48  82 W20       29.74R
WALKER         CLOUDY    55  44  65 NW13G20   29.82F
$$
MNZ012-019>021-037-292200-
   Northeast Minnesota

CITY           SKY/WX    TMP DP  RH WIND       PRES   REMARKS
DULUTH         LGT RAIN  54  50  86 NW17G24   29.73S
ELY            CLOUDY    52  50  93 W8        29.70R FOG
HIBBING        LGT RAIN  52  48  86 W12       29.75R
EVELETH        CLOUDY    55  48  78 W10G18    29.74S
DULUTH HARBOR  CLOUDY    57  52  82 MISG      29.74R
TWO HARBORS    DRIZZLE   57  52  82 NW12G23   29.69R
SILVER BAY     CLOUDY    57  48  72 W13G23    29.67R
GRAND MARAIS     N/A     64  51  62 W12G24    29.60S
G MARAIS ARPRT CLOUDY    55  46  71 W12G21    29.63S
$$
MNZ029>031-032-039>041-046>048-054>057-064-292200-
   West Central Minnesota

CITY           SKY/WX    TMP DP  RH WIND       PRES   REMARKS
FERGUS FALLS   PTSUNNY   57  48  72 NW17G24   29.88S
WHEATON        HVY RAIN  55  50  82 NW16G22   29.95R
MORRIS         MOSUNNY   61  46  59 NW17      29.90S
ALEXANDRIA     CLOUDY    57  46  66 NW13      29.89F
ELBOW LAKE     LGT RAIN  54  51  88 W14G22    29.90F
WADENA         CLOUDY    55  46  71 NW12      29.86S
GLENWOOD       MOSUNNY   59  45  58 NW18G25   29.89S
APPLETON       CLOUDY    59  48  67 NW15      29.92S
BENSON         MOSUNNY   64  45  48 N21G29    29.91F
ORTONVILLE     CLOUDY    57  46  67 NW14G21   29.93S
MADISON        CLOUDY    63  52  67 NW21G26   29.94S
WILLMAR        FAIR      61  46  59 NW22G29   29.90S
$$
MNZ033>034-036-042>043-049>051-058-059-292200-
   Central Minnesota

CITY           SKY/WX    TMP DP  RH WIND       PRES   REMARKS
ST CLOUD       CLOUDY    58  47  66 NW20G31   29.84R
SAUK CENTRE    CLOUDY    57  45  63 NW16G25   29.88S
PAYNESVILLE    PTSUNNY   60  45  57 NW17G26   29.88S
AITKIN         CLOUDY    52  46  82 NW13G24   29.80R HAZE
PINE RIVER     CLOUDY    54  45  71 NW9G20    29.87S
BRAINERD       CLOUDY    55  44  66 NW15      29.84R
STAPLES        CLOUDY    55  43  62 NW16      29.85F
LONG PRAIRIE   PTSUNNY   59  45  58 W15G22    29.87S
LITTLE FALLS   CLOUDY    55  43  62 NW15G21   29.86R
LITCHFIELD     PTSUNNY   63  48  59 NW23G29   29.87S
BUFFALO        CLOUDY    60  47  63 W18G26    29.85R
MAPLE LAKE     PTSUNNY   62  50  64 W18G24    29.85S
HUTCHINSON     CLOUDY    63  48  57 W17G29    29.87S
$$
MNZ037-044-045-052-053-292200-
   East Central Minnesota

CITY           SKY/WX    TMP DP  RH WIND       PRES   REMARKS
PRINCETON      CLOUDY    61  48  63 W20G25    29.82R
MORA           CLOUDY    59  45  58 NW14      29.80S
CAMBRIDGE      PTSUNNY   64  48  55 W16G24    29.78S
RUSH CITY      CLOUDY    62  50  65 W13G18    29.78S
MOOSE LAKE     CLOUDY    59  46  63 W14G22    29.75R
HINCKLEY       CLOUDY    63  46  55 W15G23    29.77S
CLOQUET        CLOUDY    57  45  62 W13G18    29.75S
MCGREGOR       CLOUDY    55  46  71 NW14G20   29.79R
$$
MNZ071>073-080-081-089-090-097-098-292200-
   Southwest Minnesota

CITY           SKY/WX    TMP DP  RH WIND       PRES   REMARKS
MONTEVIDEO     MOSUNNY   57  52  82 N14G23    29.93R
CANBY          PTSUNNY   60  50  69 W20G25    29.96R
MARSHALL       CLOUDY    59  50  72 NW21      29.93F
REDWOOD FALLS  PTSUNNY   64  46  52 NW17G29   29.90S
OLIVIA         PTSUNNY   63  45  51 NW21G32   29.89S
PIPESTONE      PTSUNNY   61  43  51 NW14G29   29.97S
WINDOM         PTSUNNY   61  50  67 W28       29.94F
WORTHINGTON    CLOUDY    61  47  59 W23G29    29.96R
JACKSON        CLOUDY    57  48  72 NW12G17   29.95R
TRACY          CLOUDY    56  52  86 NW14      29.95S
SLAYTON        PTSUNNY   60  47  61 W20       29.95F
$$
MNZ065>067-074>077-082>085-091>093-292200-
   South Central Minnesota

CITY           SKY/WX    TMP DP  RH WIND       PRES   REMARKS
MANKATO        RAIN      56  51  84 NW10      29.89S
NEW ULM        PTSUNNY   61  48  63 NW22G28   29.89S
ST JAMES       MOSUNNY   64  45  48 W26       29.92R
FAIRMONT       CLOUDY    62  45  53 NW24G31   29.92S
GLENCOE        CLOUDY    65  49  57 W24       29.85R
FARIBAULT      LGT RAIN  63  50  63 W12G18    29.86S
OWATONNA       MOSUNNY   63  48  59 W18G26    29.87R
WASECA         CLOUDY    59  48  67 W20G25    29.89F
ALBERT LEA     PTSUNNY   64  46  52 NW10G22   29.88F
$$
MNZ078>079-086>088-094>096-292200-
   Southeast Minnesota

CITY           SKY/WX    TMP DP  RH WIND       PRES   REMARKS
ROCHESTER      LGT RAIN  60  50  69 W17G32    29.87S
RED WING       CLOUDY    61  52  72 NW8       29.81F
STANTON        PTSUNNY   63  49  60 W14       29.82S
DODGE CENTER   PTSUNNY   61  48  63 W16G24    29.86S
WINONA         PTSUNNY   64  45  48 W16G25    29.82R
AUSTIN         PTSUNNY   61  46  59 W16G22    29.87S
PRESTON        CLOUDY    61  48  62 W20       29.86F
$$
ABBREVIATIONS USED IN REMARKS
   TC - TEMPERATURES IN CELSIUS
  WCI - WIND CHILL INDEX
   HX - HEAT INDEX
  VSB - VISIBILITY
$$




USA.gov is the U.S. government's official web portal to all federal, state and local government web resources and services.